User: anonymous   Login
Location: Unspecified
(0.0000°N, 0.0000°E)
Time: 17:26:13
(UTC+00:00)
Language:

FLOCK 1C 10 - Orbit

View from above orbital plane
View from above orbital plane
View from above satellite
View from above satellite

Ground track
Ground track

The orbit data is extracted from the following two-line orbital elements,

1 40023U 14033P   21336.80003388  .00001315  00000-0  13930-3 0  9994
2 40023  97.9784 275.2257 0012512 349.8720  10.2244 14.90859785405131
Epoch (UTC): 02 December 2021 19:12:02
Eccentricity: 0.0012512
inclination: 97.9784°
perigee height: 586 km
apogee height: 604 km
right ascension of ascending node: 275.2257°
argument of perigee: 349.8720°
revolutions per day: 14.90859785
mean anomaly at epoch: 10.2244°
orbit number at epoch: 40513

The dashed part of the orbit path shows where the satellite is in the earth's shadow,  

DLR